Lid_Strength_Index
6 6 6 6 6 6 6 6 6 6 6 6 6 6 6 6 6 6 6 6 6 6 6 5 5 5 7 12 12 9 6 7 4 5 8 6 8 10 12 12 12 12 11 10 9 8 8
6 6 7 6 6 6 7 7 7 6 6 6 6 6 6 6 6 6 6 5 5 6 5 5 5 6 9 14 8 9 8 8 8 6 7 6 7 8 10 11 11 10 10 10 10 9 8
6 6 6 7 7 7 7 6 6 6 6 6 6 6 6 6 6 6 6 5 5 5 5 4 4 6 9 11 7 7 7 8 9 8 7 5 5 8 10 12 10 10 12 10 9 8 9
6 6 6 6 7 7 6 6 6 6 6 6 6 6 6 6 6 6 5 5 5 4 3 3 4 7 11 6 5 7 7 8 7 7 9 8 8 8 10 9 10 11 11 13 9 9 8
6 6 7 7 7 7 7 7 7 6 6 6 6 6 5 5 5 5 5 5 5 4 3 4 7 8 11 5 7 5 6 8 8 8 8 7 9 10 9 11 13 12 15 13 11 8 8
6 6 6 7 7 7 7 7 7 7 7 6 6 6 6 6 5 5 5 5 5 4 4 4 6 10 8 9 6 6 6 7 8 9 8 9 9 11 12 12 16 15 14 13 13 10 9
6 6 6 6 7 7 7 7 7 7 7 6 6 6 6 6 5 5 7 8 11 11 10 12 10 9 10 7 5 7 7 8 8 10 10 8 11 14 11 11 11 12 13 14 12 10 11
6 6 6 6 6 7 6 6 6 6 6 6 6 6 6 6 5 6 8 11 11 11 14 9 10 10 8 8 11 8 6 9 10 12 11 10 12 10 10 10 12 12 14 14 12 10 11
6 6 6 6 6 6 6 6 6 6 6 6 5 5 5 5 6 9 9 10 7 8 13 10 8 8 8 7 10 10 8 9 11 11 11 12 11 9 10 11 12 12 13 13 13 11 10
6 6 6 6 6 7 7 7 6 6 6 5 5 5 5 5 9 9 9 7 7 7 14 13 9 7 7 7 10 7 7 9 11 12 10 10 8 9 10 11 10 14 10 11 11 13 16
6 6 6 7 7 7 7 7 6 6 5 5 5 5 5 5 8 9 8 6 6 7 20 12 8 4 5 8 8 8 6 8 12 11 9 12 11 11 11 10 10 12 9 10 11 13 14
7 6 6 6 7 7 6 6 6 5 5 5 5 5 5 6 7 6 6 6 6 15 20 13 8 10 10 8 7 8 8 7 8 10 9 11 7 9 9 9 8 8 10 11 11 13 18
7 7 6 6 7 7 6 6 6 5 5 4 4 3 4 5 9 6 6 7 16 19 12 13 12 11 11 10 9 9 10 11 12 14 14 11 11 9 8 11 9 10 13 17 19 19 18
6 6 6 6 6 6 6 5 5 4 3 3 3 4 6 5 6 6 7 12 19 15 14 11 12 11 11 10 10 10 11 12 11 11 13 14 16 11 9 10 11 12 13 16 22 20 18
7 7 6 6 5 5 5 4 4 3 3 2 4 8 8 7 5 6 10 17 16 14 12 13 12 12 12 10 10 11 11 11 11 10 13 14 14 9 9 8 9 13 15 11 16 15 18
7 6 5 5 5 5 4 3 3 3 2 3 8 9 8 6 5 8 13 15 14 11 10 10 14 11 15 13 12 12 12 9 11 10 9 11 14 10 10 8 9 11 10 17 16 21 21
6 5 5 5 4 3 3 3 3 3 3 3 9 11 7 6 5 11 16 15 12 9 9 11 12 13 13 13 11 12 12 10 9 9 8 10 11 13 10 12 13 13 14 14 14 16 19
6 4 4 4 3 3 3 3 3 3 3 6 10 15 7 5 11 12 13 11 9 10 8 9 9 10 11 10 12 12 12 11 8 9 11 9 11 14 13 9 8 10 13 12 17 18 17
5 4 3 3 4 3 3 3 2 3 3 8 11 11 7 6 15 14 11 11 10 10 9 9 10 8 8 10 13 11 11 8 9 9 11 10 13 16 15 12 11 13 12 12 13 14 17
4 3 3 4 3 3 2 3 3 2 3 7 11 16 12 9 10 11 13 12 11 8 9 8 9 8 9 11 9 12 11 9 9 10 7 8 12 14 16 14 12 14 12 11 13 16 17
3 3 3 3 2 3 3 3 3 2 2 6 9 14 11 15 12 11 10 11 12 12 8 8 10 10 11 12 11 12 10 10 9 9 8 10 15 13 12 11 12 12 12 12 13 12 15
4 3 3 3 2 3 2 3 3 2 2 7 11 12 10 11 10 11 11 12 13 11 10 11 11 9 10 12 11 12 11 11 11 9 10 9 14 13 14 12 13 14 13 13 12 12 12
4 3 3 3 2 2 2 2 2 2 4 9 8 6 9 11 11 13 14 12 12 11 10 9 10 10 11 10 7 7 7 8 9 10 11 11 12 13 16 13 13 16 13 12 11 10 11
3 3 2 2 2 2 2 2 2 2 4 8 8 8 11 14 12 12 11 11 11 11 12 10 8 10 7 5 6 6 7 8 8 9 8 11 12 12 14 14 20 13 10 9 11 10 8
3 3 3 3 2 2 2 2 2 2 2 6 7 8 11 14 11 11 11 10 10 9 10 10 8 5 4 7 10 12 12 11 11 9 9 8 11 14 16 16 14 12 10 11 12 12 9
3 3 2 2 2 2 2 2 2 2 2 3 5 5 8 11 12 9 10 9 11 10 9 8 5 5 6 9 12 15 15 13 13 12 8 9 9 12 14 18 19 13 9 7 8 13 9
3 2 2 2 2 2 2 2 2 2 2 3 4 4 6 10 8 7 9 9 7 8 9 9 8 9 7 10 14 14 14 11 14 14 14 13 12 14 14 15 13 10 8 7 14 14 8
3 2 2 2 2 2 2 2 2 2 2 3 4 3 6 8 7 6 5 7 7 7 10 8 9 9 11 12 13 13 13 12 13 11 12 13 14 15 14 16 17 8 8 12 10 7 9
3 2 2 2 2 2 2 2 2 2 1 2 5 3 3 6 6 5 4 3 3 4 6 7 9 9 9 10 10 10 13 11 12 14 9 14 12 13 12 12 8 9 9 9 7 8 9